[[{"header":{"parameterUnit":"m.s-1","parameterCategory":1,"la1":30.2991,"la2":30.254,"lo1":-89.0895,"lo2":-89.0444,"dy":0.0017,"dx":0.0017,"nx":28,"ny":28,"refTime":"2023-07-29T21:00:00:Z","depth":0,"parameterNumber":2,"parameterNumberName":"U-component_of_WINDS"},"data":[0,0,0,0,0,0,0,0,0,0,0,0,0,0,0,0,0,0,0,0,0,0,0,0,0,0,0,0,0,0,0,0,0,0,0,0,0,0,0,0,0,0,0,0,0,0,0,0,0,0,0,0,0,0,0,0,0,0,2.1636,2.1636,0,2.164,2.164,2.164,2.1605,2.1604,2.1603,2.1602,2.1607,2.1608,2.1609,0,0,0,0,0,0,0,0,0,0,0,0,0,2.1599,2.16,2.1636,2.1636,2.1637,2.164,2.164,2.164,2.1605,2.1604,2.1603,2.1602,2.1606,2.1607,2.1609,0,0,0,0,0,0,0,0,0,0,0,0,0,2.161,2.16,2.1636,2.1619,2.1618,2.164,2.164,2.164,2.1605,2.1604,2.1602,2.1601,2.1606,2.1607,2.1609,2.1648,0,0,2.1614,2.1614,0,0,0,0,0,0,0,0,2.161,2.1612,2.1622,2.1621,2.1619,2.1621,2.1629,2.1643,2.1606,2.161,2.1602,2.16,2.1612,2.1613,2.1617,2.1648,2.1648,2.1614,2.1615,2.1615,2.1616,0,0,0,0,0,0,0,2.1609,2.1611,2.1638,2.1622,2.162,2.1612,2.1612,2.1631,2.162,2.161,2.1607,2.1608,2.1611,2.1616,2.1617,2.1648,2.1614,2.1615,2.1616,2.1617,2.1711,2.1713,0,0,0,0,0,0,2.161,2.1611,2.1638,2.1638,2.1611,2.1614,2.1613,2.1622,2.1619,2.1617,2.1609,2.1606,2.1614,2.1615,2.1617,2.1663,2.1615,2.1617,2.1618,2.1709,2.1711,2.1713,0,0,0,0,0,0,2.161,2.1613,2.1638,2.1624,2.1626,2.1616,2.1625,2.1622,2.1627,2.1619,2.1617,2.1616,2.1613,2.1615,2.164,2.1662,2.1617,2.1619,2.1708,2.171,2.1712,2.1754,0,0,0,0,0,0,2.1609,2.1613,2.1628,2.1624,2.1627,2.1661,2.1626,2.1624,2.163,2.1626,2.1625,2.1623,2.1612,2.1638,2.1642,2.1664,2.162,2.1706,2.1709,2.1712,2.1751,2.1758,2.1764,0,0,0,0,0,2.1608,2.164,2.1629,2.1632,2.1645,2.1662,2.1664,2.165,2.1631,2.1646,2.1641,2.1623,2.1659,2.1641,2.1645,2.1668,2.1704,2.1708,2.1711,2.1748,2.1756,2.1764,0,0,0,0,0,0,2.1646,2.1639,2.1627,2.1658,2.1661,2.1656,2.1674,2.1659,2.1668,2.1664,2.1647,2.1647,2.1675,2.1674,2.1654,2.1705,2.1678,2.1683,2.1705,2.1713,2.1719,2.1719,2.1621,0,0,0,0,0,2.1658,2.1673,2.1665,2.1694,2.1696,2.1685,2.1692,2.1681,2.1683,2.1684,2.1681,2.1684,2.1696,2.1704,2.1715,2.175,2.175,2.1768,2.1774,2.1779,2.1784,2.1802,2.181,2.1725,2.1725,2.1725,0,0,2.1684,2.1681,2.1692,2.1702,2.1703,2.1718,2.1686,2.1704,2.1715,2.1687,2.1711,2.1709,2.1711,2.1741,2.1755,2.1741,2.1807,2.1784,2.1788,2.179,2.1807,2.1815,2.1822,2.1727,2.1727,2.1726,0,0,2.1738,2.1737,2.1761,2.1763,2.1764,2.1757,2.1762,2.176,2.1757,2.1781,2.176,2.1773,2.1794,2.1796,2.18,2.1855,2.1839,2.1859,2.1893,2.1911,2.1918,2.1924,2.1944,2.1951,2.1863,2.1863,2.1863,0,2.1769,2.1791,2.1776,2.1795,2.18,2.1775,2.1799,2.1801,2.1806,2.1811,2.1795,2.1821,2.1821,2.1851,2.1865,2.1869,2.1875,2.1859,2.1918,2.1924,2.1929,2.1948,2.1956,2.1866,2.1865,2.1865,2.1865,0,2.183,2.1846,2.1865,2.187,2.1878,2.1899,2.1887,2.1896,2.1884,2.1879,2.1903,2.1901,2.1911,2.1918,2.1907,2.1947,2.1939,2.1921,2.1894,2.194,2.1958,2.1965,2.1869,2.1868,2.1868,2.1867,0,0,2.1909,2.1905,2.1913,2.1915,2.1914,2.1926,2.1947,2.1956,2.1965,2.1969,2.1986,2.2004,2.1987,2.1992,2.1981,2.1997,2.2041,2.1977,2.1977,2.199,2.2086,2.2099,2.2108,2.203,2.2031,2.2032,2.2086,0,2.1962,2.1997,2.1983,2.2019,2.2033,2.2009,2.2027,2.2029,2.2024,2.2035,2.203,2.2043,2.202,2.2023,2.2038,2.2032,2.206,2.2028,2.2046,2.2047,2.2047,2.2117,2.2132,2.2182,2.2092,2.2093,2.2094,0,2.2029,2.2036,2.2073,2.207,2.2075,2.2092,2.2099,2.211,2.2112,2.2107,2.2112,2.2098,2.2117,2.209,2.2117,2.2096,2.2102,2.2101,2.2102,2.2104,2.2074,2.2121,2.2198,2.2206,2.2105,2.2104,2.2103,0,2.2083,2.2102,2.2126,2.2129,2.2126,2.2138,2.2137,2.2137,2.2144,2.2151,2.2155,2.2164,2.2169,2.2176,2.2164,2.2145,2.2193,2.2165,2.219,2.219,2.2202,2.2201,2.2281,2.2205,2.2205,2.2205,2.2205,0,2.2144,2.2168,2.2151,2.2166,2.2192,2.2176,2.2202,2.2199,2.2199,2.2213,2.2193,2.2207,2.219,2.2203,2.2193,2.2217,2.222,2.2217,2.2214,2.2219,2.2219,2.2223,2.2219,2.2207,2.2206,2.2206,2.2206,0,2.221,2.2199,2.2224,2.222,2.2219,2.2238,2.2234,2.2248,2.2241,2.226,2.2263,2.2253,2.2266,2.2255,2.2268,2.2262,2.2294,2.2286,2.2293,2.2291,2.2317,2.2315,2.2403,2.2414,2.233,2.2331,2.2332,0,2.2249,2.2267,2.2264,2.2272,2.2273,2.2286,2.2293,2.2278,2.2285,2.2288,2.2302,2.2313,2.2322,2.2345,2.2338,2.2348,2.2341,2.2371,2.2342,2.2346,2.2342,2.2341,2.2343,2.2377,2.2378,2.2378,2.2379,0,2.2322,2.2315,2.2325,2.2334,2.2342,2.2348,2.2353,2.236,2.2345,2.2354,2.2368,2.2374,2.2387,2.2399,2.2407,2.2406,2.2391,2.2388,2.2394,2.24,2.2404,2.2402,2.231,2.2386,2.2386,2.2385,2.2385,2.2384,2.2376,2.239,2.2391,2.2403,2.2404,2.2409,2.2422,2.2416,2.2427,2.2437,2.2427,2.2443,2.2444,2.2453,2.2454,2.2467,2.2454,2.2464,2.2466,2.2469,2.2473,2.2401,2.2468,2.2468,2.2468,2.2467,2.2467,0,2.2447,2.2446,2.2457,2.2464,2.2473,2.2457,2.2461,2.247,2.2484,2.2487,2.2495,2.2511,2.2522,2.2517,2.2526,2.2538,2.2531,2.2541,2.254,2.254,2.2483,2.2477,2.2546,2.2546,2.2546,2.2546,2.2546,2.2546,2.2485,2.2509,2.2503,2.2528,2.2526,2.2542,2.2546,2.255,2.2552,2.257,2.2579,2.2575,2.2574,2.2584,2.2594,2.2592,2.2597,2.261,2.2605,2.2552,2.2544,2.2537,2.2531,2.2611,2.2611,2.2661,2.2662,2.2662]},{"header":{"parameterUnit":"m.s-1","parameterCategory":1,"la1":30.2991,"la2":30.254,"lo1":-89.0895,"lo2":-89.0444,"dy":0.0017,"dx":0.0017,"nx":28,"ny":28,"refTime":"2023-07-29T21:00:00:Z","depth":0,"parameterNumber":3,"parameterNumberName":"V-component_of_WINDS"},"data":[0,0,0,0,0,0,0,0,0,0,0,0,0,0,0,0,0,0,0,0,0,0,0,0,0,0,0,0,0,0,0,0,0,0,0,0,0,0,0,0,0,0,0,0,0,0,0,0,0,0,0,0,0,0,0,0,0,0,1.1097,1.1096,0,1.1008,1.1007,1.1006,1.0964,1.0964,1.0964,1.0964,1.0869,1.0866,1.0864,0,0,0,0,0,0,0,0,0,0,0,0,0,1.1226,1.1224,1.1097,1.1096,1.1095,1.1008,1.1007,1.1005,1.0964,1.0964,1.0964,1.0964,1.087,1.0867,1.0864,0,0,0,0,0,0,0,0,0,0,0,0,0,1.1157,1.1223,1.1097,1.1063,1.106,1.1008,1.1007,1.1005,1.0964,1.0964,1.0964,1.0964,1.0871,1.0867,1.0863,1.0837,0,0,1.0851,1.085,0,0,0,0,0,0,0,0,1.1161,1.1152,1.1069,1.1066,1.1061,1.0997,1.1017,1.0949,1.0964,1.1,1.0964,1.0964,1.0911,1.0904,1.0887,1.0833,1.0828,1.0851,1.0849,1.0847,1.0846,0,0,0,0,0,0,0,1.1165,1.1155,1.1061,1.1068,1.1063,1.1051,1.1042,1.1004,1.0956,1.0997,1.0994,1.0984,1.0909,1.0891,1.0884,1.0827,1.0851,1.0848,1.0845,1.0844,1.0745,1.0745,0,0,0,0,0,0,1.1176,1.116,1.1064,1.1059,1.1112,1.1049,1.1038,1.1018,1.0956,1.0947,1.0984,1.0982,1.0897,1.0889,1.0881,1.0845,1.0847,1.0843,1.0841,1.0745,1.0745,1.0745,0,0,0,0,0,0,1.1179,1.1168,1.1068,1.1108,1.1095,1.1047,1.1024,1.1016,1.0998,1.0947,1.0937,1.0975,1.0897,1.0886,1.0848,1.0842,1.0841,1.0838,1.0746,1.0745,1.0745,1.0775,0,0,0,0,0,0,1.1183,1.1169,1.116,1.1108,1.1093,1.1038,1.1024,1.1014,1.0992,1.0989,1.0935,1.0927,1.0896,1.0854,1.0844,1.0836,1.0835,1.0746,1.0746,1.0745,1.0774,1.0776,1.0777,0,0,0,0,0,1.1188,1.1172,1.116,1.1149,1.108,1.1038,1.1029,1.0996,1.0991,1.0981,1.0948,1.0928,1.0844,1.0851,1.0839,1.083,1.0746,1.0746,1.0745,1.0774,1.0776,1.0777,0,0,0,0,0,0,1.1222,1.1164,1.1151,1.1118,1.1083,1.1031,1.1017,1.0998,1.0963,1.0962,1.0921,1.0909,1.0874,1.0848,1.0857,1.0801,1.0793,1.079,1.0819,1.082,1.0821,1.0828,1.0832,0,0,0,0,0,1.1227,1.1198,1.1148,1.1124,1.1107,1.1065,1.1045,1.1023,1.0985,1.097,1.0934,1.0897,1.0862,1.084,1.0805,1.0771,1.0757,1.0758,1.0759,1.0761,1.0758,1.0737,1.0737,1.0743,1.0743,1.0743,0,0,1.1234,1.1199,1.1183,1.113,1.1101,1.1071,1.1053,1.1023,1.1,1.0965,1.0927,1.0899,1.0855,1.0818,1.08,1.0795,1.0754,1.076,1.0761,1.0758,1.0737,1.0736,1.0736,1.0742,1.0742,1.0743,0,0,1.1232,1.1204,1.118,1.1151,1.1107,1.1079,1.1073,1.1024,1.1004,1.0966,1.0939,1.091,1.0851,1.082,1.0797,1.0783,1.0763,1.0773,1.0779,1.0759,1.0758,1.0758,1.0752,1.075,1.0771,1.0771,1.0771,0,1.1247,1.1203,1.1169,1.114,1.1117,1.1085,1.1059,1.1033,1.0979,1.0963,1.0958,1.0883,1.0851,1.0807,1.0803,1.0786,1.0777,1.0778,1.0761,1.076,1.0759,1.0753,1.0751,1.0772,1.0772,1.0772,1.0772,0,1.1222,1.1192,1.1177,1.1128,1.1103,1.1076,1.1037,1.1015,1.0994,1.0966,1.0927,1.0887,1.0843,1.0831,1.081,1.0783,1.0781,1.077,1.0761,1.076,1.0754,1.0751,1.0774,1.0774,1.0773,1.0773,0,0,1.124,1.1173,1.1168,1.1145,1.1094,1.1069,1.1039,1.0998,1.0979,1.0943,1.0917,1.0867,1.0856,1.0829,1.0805,1.0787,1.0778,1.0777,1.0776,1.0778,1.0744,1.0753,1.0751,1.0765,1.0764,1.0763,1.0747,0,1.1231,1.1179,1.1147,1.1107,1.1078,1.1047,1.1021,1.0986,1.0959,1.0929,1.0898,1.0863,1.0852,1.0835,1.0817,1.0783,1.077,1.0784,1.0738,1.0737,1.075,1.0748,1.0757,1.0744,1.0745,1.0744,1.0744,0,1.1214,1.118,1.1137,1.1089,1.1075,1.1053,1.1012,1.0984,1.0943,1.0924,1.0895,1.087,1.0836,1.0831,1.0783,1.0792,1.0772,1.0752,1.0751,1.0745,1.074,1.0741,1.0739,1.0737,1.074,1.074,1.0741,0,1.123,1.1173,1.114,1.1121,1.1065,1.1049,1.1025,1.0984,1.0961,1.0924,1.0908,1.0868,1.0846,1.0814,1.0778,1.0778,1.0733,1.0725,1.0715,1.0716,1.0707,1.0708,1.0701,1.0695,1.0695,1.0695,1.0695,0,1.1223,1.1198,1.1147,1.1127,1.1097,1.106,1.1031,1.1004,1.0968,1.094,1.0911,1.0885,1.084,1.0808,1.078,1.0744,1.0734,1.0717,1.0709,1.0719,1.0721,1.0705,1.0704,1.0694,1.0695,1.0695,1.0695,0,1.1236,1.1201,1.1163,1.1113,1.1099,1.108,1.1036,1.1014,1.0985,1.095,1.094,1.0894,1.0856,1.0817,1.0764,1.0745,1.0709,1.07,1.0724,1.0719,1.0711,1.0713,1.0693,1.0688,1.0686,1.0686,1.0686,0,1.1234,1.1214,1.1162,1.1142,1.1118,1.1087,1.1063,1.1025,1.1002,1.0953,1.0937,1.0896,1.0862,1.0801,1.0762,1.0721,1.071,1.0706,1.0703,1.0714,1.0709,1.071,1.0707,1.0707,1.0707,1.0707,1.0707,0,1.1233,1.1217,1.1185,1.1146,1.1119,1.1086,1.1053,1.1038,1.0993,1.0968,1.0928,1.0902,1.0848,1.0808,1.0763,1.0735,1.0713,1.0709,1.0704,1.0713,1.0728,1.0719,1.0726,1.0709,1.0709,1.0709,1.0709,1.0709,1.1238,1.1218,1.1178,1.1143,1.1114,1.1083,1.106,1.1029,1.0996,1.0951,1.093,1.089,1.0848,1.0785,1.0758,1.0726,1.072,1.0713,1.0712,1.0711,1.0712,1.0734,1.0717,1.0717,1.0717,1.0717,1.0717,0,1.1235,1.1208,1.1176,1.113,1.1102,1.1085,1.1047,1.1024,1.099,1.0953,1.092,1.0874,1.0835,1.0793,1.075,1.0732,1.0721,1.0722,1.0723,1.0716,1.072,1.0728,1.0732,1.0732,1.0732,1.0732,1.0732,1.0732,1.123,1.1196,1.1175,1.1126,1.1098,1.106,1.1039,1.101,1.0981,1.0931,1.0899,1.0872,1.0833,1.0787,1.075,1.0738,1.0723,1.0727,1.0713,1.0717,1.0716,1.0715,1.0722,1.0725,1.0725,1.0711,1.0711,1.0711]}]]